カタログに戻る

H2SAT

運用中科学GEO
NORAD 57213·PAYLOAD·🇩🇪 Germany

打ち上げ Jul 5, 2023 から Guiana Space Centre

Loading…

TLE

最新Source: Space-Track

元期: Sep 14, 2026, 00:24 UTC

1 57213U 23093A   26257.01735947  .00000000  00000-0  00000-0 0  9993
2 57213   0.0221  42.1196 0000441  89.6839 228.2003  1.00270538 11814

AllMySatでH2SATをリアルタイム追跡

Download on the App Store